Starlink 3617

operational
NORAD ID: 51780 Int'l Des: 2022-017 Owner: SPXS Country: US Constellation: starlink
LEOCIRCULAR

About Starlink 3617

Description loading...

Live Position

Loading 3D Globe...

Upcoming Passes

Altitude History

Altitude vs Time

uPlot chart will show altitude changes over time

Two-Line Element Set

1 51780U 22017N 25304.73975779 -.00000234 00000-0 34139-5 0 9996
2 51780 53.2172 197.9899 0001428 91.2534 268.8622 15.08829067202952
Epoch: Oct 31, 2025 • Age: 10 hours

Current Status

Altitude 543.5 km
Velocity 7.60 km/s
Sub-Earth Point 44.65°N, 129.11°W
Launch Date Feb 25, 2022
Age 3.6 years
Type internet

Technical Details

Classification Payload
Mass 297.00 kg
Dry Mass 275.00 kg
Total Mass 297.00 kg
Length 0.20 m
Diameter 2.80 m
Span 9.00 m
Shape Box + pan
Manufacturer SPXS
Bus Type Starlink
Phase Status In Orbit
Owner/State SPXS/US

Large Constellations

Loading constellations...